DW4558 Weather Reports


Display with metric or nautical units.
time (UTC)temp
F
wind
direction
speed
MPH
gust
MPH
rain 1hr
in
rain 24hr
in
rain mn
in
humidity
%
barometer
mb
20260504081504 28 227 6.0 8.0 0.00 0.00 0.00 93 1004.2
20260504044539 30 142 1.0 3.0 0.00 0.00 0.00 86 1004.8
20260504043036 31 298 2.0 6.0 0.00 0.00 0.00 85 1004.7
20260504041534 32 272 4.0 11.0 0.00 0.00 0.00 85 1004.9
20260504040031 31 260 4.0 6.0 0.00 0.00 0.00 85 1004.8
20260504034528 32 275 2.0 4.0 0.00 0.00 0.00 84 1004.5
20260504033025 33 259 3.0 4.0 0.00 0.00 0.00 82 1004.5
20260504031524 34 272 2.0 3.0 0.00 0.00 0.00 80 1004.6
20260504030022 35 281 2.0 3.0 0.00 0.00 0.00 78 1004.9
20260504024521 36 321 0.0 3.0 0.00 0.01 0.00 75 1005.0
20260504023022 39 313 1.0 3.0 0.00 0.01 0.00 68 1005.0
20260504021521 40 310 3.0 8.0 0.00 0.01 0.00 64 1005.1
20260504020028 41 33 2.0 11.0 0.00 0.01 0.00 63 1005.2
20260504014538 41 360 3.0 8.0 0.00 0.01 0.00 63 1005.4
20260504013020 41 338 6.0 14.0 0.00 0.01 0.00 62 1005.6
20260504011520 42 336 7.0 15.0 0.00 0.01 0.00 62 1005.6
20260504010019 42 23 12.0 19.0 0.00 0.01 0.00 62 1005.3
20260504004517 43 355 5.0 10.0 0.00 0.01 0.00 71 1005.1
20260504003016 43 33 5.0 11.0 0.00 0.01 0.00 72 1004.7
20260504001518 43 47 3.0 6.0 0.00 0.01 0.00 75 1004.6
20260504000033 43 74 4.0 8.0 0.00 0.01 0.00 74 1004.5
20260503234515 43 40 4.0 9.0 0.00 0.01 0.00 73 1004.4
20260503233019 44 57 5.0 9.0 0.00 0.01 0.00 72 1004.3
20260503231514 44 28 5.0 13.0 0.00 0.01 0.00 71 1004.2
20260503230014 44 68 5.0 16.0 0.00 0.01 0.00 71 1004.1
20260503224513 44 42 6.0 14.0 0.00 0.01 0.00 72 1004.0
20260503223013 44 57 6.0 16.0 0.00 0.01 0.00 72 1003.9
20260503221512 44 59 11.0 15.0 0.00 0.01 0.00 73 1003.8
20260503220017 44 65 7.0 16.0 0.00 0.01 0.00 75 1003.8
20260503214522 44 36 10.0 20.0 0.00 0.02 0.00 75 1003.9
20260503213010 45 63 12.0 19.0 0.00 0.02 0.00 72 1004.0
20260503211512 46 49 11.0 18.0 0.00 0.02 0.00 69 1004.0
20260503210026 47 28 12.0 18.0 0.00 0.02 0.00 64 1004.0
20260503204511 48 9 8.0 13.0 0.00 0.02 0.00 62 1004.0
20260503203014 48 19 7.0 15.0 0.00 0.02 0.00 61 1004.0
20260503201511 49 25 6.0 12.0 0.00 0.02 0.00 59 1004.0
20260503200007 49 11 7.0 13.0 0.00 0.02 0.00 59 1004.0
20260503194507 50 342 5.0 10.0 0.00 0.02 0.00 55 1004.0
20260503193006 50 13 7.0 11.0 0.00 0.02 0.00 56 1004.2
20260503191505 51 342 6.0 12.0 0.00 0.02 0.00 57 1004.0
20260503190004 50 348 10.0 14.0 0.00 0.02 0.00 62 1004.0
20260503184503 50 234 5.0 14.0 0.00 0.02 0.00 60 1004.1
20260503183001 50 19 7.0 12.0 0.00 0.02 0.00 63 1004.3
20260503181600 49 22 8.0 16.0 0.00 0.02 0.00 69 1004.5
20260503180107 48 5 8.0 14.0 0.00 0.02 0.00 67 1004.6
20260503174556 48 13 7.0 12.0 0.00 0.02 0.00 73 1004.9
20260503173147 49 326 6.0 13.0 0.00 0.02 0.00 67 1004.8
20260503171555 49 338 8.0 14.0 0.00 0.02 0.00 67 1004.9